Voltar ao catálogo

SL-12 R/B

AUX MOTOR

AtivoHEO
NORAD 23403·ROCKET BODY·🇷🇺 Russia

Lançado Nov 20, 1994 de Baikonur Cosmodrome

Loading…

Próximas Passagens (próximas 24 horas)

TLE

AtualizadoSource: Space-Track

Época: Sep 14, 2026, 19:21 UTC

1 23403U 94076H   26257.80654463  .00000001  00000-0  20234-3 0  9991
2 23403  65.5473 290.8611 5564411 104.3657  19.2883  4.27489357494527

Acompanhe SL-12 R/B em tempo real com AllMySat

Download on the App Store